GFSNGP_con_3kmhel_237.txt.gz
Helicity
222 266 333 309 323 189 283 357 251 40 122 85 118 157 59 56 83 130 154 165 32 1 27 49 52 58 109 135 169 223 284 338 369 406 419 455 472 462 447 430 448 405 388 322
64 4 230 376 374 348 234 143 202 188 149 161 169 172 148 4 84 89 65 19 43 17 -4 3 -6 27 79 129 174 194 231 289 341 369 439 492 500 512 461 448 447 420 349 302
-94 -90 -134 117 300 244 172 129 108 223 159 145 237 145 258 160 94 132 173 2 -50 24 56 25 37 64 103 111 154 187 256 322 408 465 518 531 526 474 467 451 431 381 332 279
-102 -126 -272 -284 -111 -36 60 -8 14 -101 12 50 111 107 176 163 188 213 203 216 106 6 21 -14 -4 14 45 99 107 199 300 368 426 510 549 547 509 484 473 451 408 409 329 293
-18 -164 -118 -75 -30 -120 -78 10 -28 -1 41 49 34 -15 -49 -47 4 72 113 199 190 184 30 -109 -52 -37 13 69 94 224 316 381 432 494 532 515 489 461 458 479 472 375 290 272
52 52 -39 -147 5 -7 -88 -21 33 29 19 -3 -10 -12 23 25 26 87 103 100 115 42 94 60 -22 29 48 86 100 237 313 330 416 477 483 486 483 498 505 447 374 353 323 241
120 101 84 8 29 79 52 -30 13 22 25 46 63 52 32 40 48 52 104 169 166 115 75 44 87 25 51 132 150 188 307 384 405 476 500 458 597 542 508 447 419 335 365 260
91 92 43 76 21 48 30 -7 -12 8 23 37 54 99 92 78 7 59 26 49 54 76 88 61 131 83 46 56 107 164 295 358 425 485 515 612 587 541 477 477 418 382 392 271
108 128 126 46 149 99 62 42 29 42 15 15 4 41 73 10 42 41 53 71 70 107 99 70 98 83 75 87 75 157 264 394 490 594 623 603 591 580 574 500 440 391 362 266
62 21 38 -6 2 4 28 28 21 26 24 14 36 32 24 65 66 108 139 141 127 78 101 155 89 120 89 92 166 262 317 425 599 723 637 594 630 603 573 516 511 442 291 269
54 13 19 -24 10 31 35 33 11 20 20 13 23 26 44 35 53 91 110 64 143 112 75 80 116 105 136 151 200 339 372 470 553 676 695 647 669 616 570 409 434 338 248 270
93 43 58 9 4 19 21 24 38 31 41 53 38 32 33 49 72 80 52 66 151 152 101 72 98 76 155 202 169 361 433 471 585 661 686 755 869 811 579 436 308 254 245 253
35 30 42 45 58 71 83 81 65 64 47 44 51 61 57 62 74 81 111 79 100 127 104 113 120 92 219 242 214 384 511 576 616 689 727 897 887 775 846 682 421 272 254 214
56 65 62 55 53 48 52 52 57 56 60 64 66 54 64 62 86 73 59 78 87 77 76 124 152 245 310 234 274 466 559 608 638 681 833 944 879 814 828 825 649 414 226 158
67 84 94 60 50 27 40 44 55 66 40 28 30 46 52 72 62 50 47 60 68 51 39 -6 77 62 240 284 441 571 579 583 613 668 826 938 970 917 870 711 501 328 288 200
77 76 59 25 -0 -7 3 16 -6 -23 26 9 25 35 42 52 52 39 40 53 82 62 52 52 92 100 318 455 588 654 605 621 706 776 960 1036 1021 1018 1020 717 519 324 235 176
28 19 20 8 13 3 -5 7 9 -11 21 37 1 9 4 -1 12 21 75 92 65 39 25 40 99 194 470 585 668 750 782 704 778 843 964 1087 1148 1259 905 557 396 214 161 184
43 42 19 7 -9 -33 -50 -58 -54 8 40 51 41 58 40 15 31 61 81 57 46 16 -10 3 95 242 483 708 754 844 867 828 804 848 1064 1255 1181 919 469 408 273 170 141 182
5 -20 -2 17 4 5 37 10 4 20 35 56 109 111 89 53 49 50 45 68 37 4 9 74 139 295 656 824 900 915 832 764 721 900 1130 1092 892 593 361 384 204 108 172 200
-21 -28 13 24 23 54 38 65 60 26 31 46 54 50 46 62 87 77 104 64 35 10 99 239 277 414 754 887 904 834 803 772 795 1081 1051 803 652 348 379 206 109 127 172 168
-15 -8 19 5 52 91 47 74 110 75 73 79 42 52 87 80 114 176 157 188 190 207 224 244 471 716 825 845 845 846 867 863 1045 903 643 483 396 373 219 108 126 158 195 195
-39 -28 -7 41 67 119 119 84 87 86 45 52 95 112 123 133 205 286 280 287 297 325 417 505 581 656 686 737 837 851 821 804 571 482 445 438 293 202 140 157 165 200 205 204
-33 -31 -41 21 90 146 167 119 145 156 167 184 159 159 193 157 150 220 243 332 431 484 594 597 621 699 775 835 800 775 550 423 451 443 349 225 142 150 159 197 210 205 190 171
-20 -28 -81 -4 21 9 62 68 81 135 201 265 299 244 205 207 238 271 315 345 410 501 569 616 700 814 749 605 510 481 444 441 385 266 151 133 182 212 207 196 176 160 160 174
-10 -19 -12 -8 -4 -8 -3 -27 -11 24 81 117 108 113 123 140 194 185 276 363 401 416 434 511 451 406 442 426 352 339 282 188 130 115 133 157 168 178 160 165 177 172 171 149
2 2 3 30 16 8 14 28 66 78 74 65 81 114 167 161 135 144 171 191 237 217 234 240 272 283 309 266 166 121 121 130 146 160 164 151 154 167 180 180 184 186 168 146
-4 14 26 42 23 23 43 88 95 139 177 189 197 199 197 199 214 231 220 219 219 223 243 222 168 108 81 86 101 107 131 134 124 141 149 169 173 173 183 184 181 171 151 144

GFSNGP_con_3kmhel_240.txt.gz
Helicity
167 95 155 167 252 359 258 252 261 166 148 178 320 380 484 146 28 77 61 144 190 171 119 105 120 186 276 364 339 404 470 462 473 549 580 643 619 595 573 528 576 495 522 513
163 144 81 213 211 191 267 265 191 199 272 405 31 175 524 117 380 438 470 132 93 188 110 95 112 98 118 152 212 217 309 351 424 502 529 598 655 638 648 578 543 554 552 541
-81 -102 -107 181 386 183 199 242 184 122 161 198 367 164 32 61 205 211 311 283 53 -4 68 48 76 68 133 176 166 196 238 278 341 440 500 553 595 634 592 574 583 574 574 541
-81 -77 -77 -11 -21 -40 -48 53 64 65 65 64 93 81 51 18 69 92 152 197 108 33 48 53 29 25 68 225 188 188 218 252 292 369 448 490 588 605 621 608 590 590 576 602
-39 -130 -25 37 -57 -29 -20 133 28 23 -4 -28 29 7 4 -79 -75 -89 34 108 116 109 22 39 27 43 31 119 128 151 215 242 288 370 484 558 618 637 622 638 604 587 619 574
12 -52 -138 -38 23 -48 6 51 32 69 -3 -66 -30 -34 -25 96 108 45 16 93 92 43 61 38 28 55 70 140 136 107 191 245 309 375 490 543 565 560 559 549 597 614 551 444
5 14 9 64 -18 69 69 14 71 78 116 91 44 43 93 131 187 178 139 126 109 110 59 56 72 92 62 165 171 155 192 259 296 377 458 548 590 586 606 678 634 543 482 420
11 15 42 -19 -20 -20 36 25 33 34 36 22 21 48 56 112 168 171 146 150 106 98 123 161 134 125 125 131 131 227 203 260 318 367 467 532 596 670 680 610 625 538 547 509
106 95 67 33 48 72 78 107 111 108 84 84 64 57 16 33 80 147 86 161 151 85 86 74 77 55 166 158 221 259 272 253 298 342 450 522 641 664 553 591 583 551 581 557
70 47 51 -9 -13 15 24 22 49 49 44 25 13 17 26 28 44 33 53 76 164 115 133 151 146 45 138 197 280 311 268 266 315 403 509 522 592 652 740 615 569 602 602 586
40 11 20 15 13 29 25 31 19 28 30 26 29 31 -5 5 31 60 84 75 124 163 109 75 190 131 64 199 287 356 307 301 355 458 538 584 601 632 598 474 604 665 636 629
45 27 31 22 15 10 30 69 80 58 92 54 33 34 33 33 53 56 53 84 66 81 57 68 177 118 158 93 271 353 375 337 445 538 580 608 664 673 587 540 493 493 440 457
20 27 37 60 74 91 103 87 88 79 74 84 112 106 91 85 80 75 101 57 70 91 77 103 118 89 101 99 183 384 454 476 543 578 624 644 635 674 646 639 517 432 500 521
31 45 63 68 96 130 135 120 116 119 108 103 85 95 118 127 125 102 102 90 92 109 65 92 165 111 36 45 119 400 498 675 649 611 636 640 678 642 660 805 779 672 697 643
131 170 171 148 131 121 132 121 106 72 79 74 72 74 82 88 105 123 141 118 116 110 84 54 43 77 77 -26 127 122 531 696 691 650 621 635 677 669 685 769 805 739 859 898
136 116 122 118 110 106 84 80 88 29 42 70 57 58 86 92 104 123 129 112 70 88 119 148 119 83 10 -86 13 -0 213 658 771 728 708 685 669 706 745 800 833 815 920 941
78 59 62 54 44 33 30 37 41 44 41 30 13 57 98 71 91 133 148 139 141 88 84 157 135 133 92 39 53 117 212 535 741 778 808 760 680 658 751 796 864 853 855 739
52 37 29 29 2 -9 -4 23 37 22 18 15 15 2 26 72 97 112 159 183 199 177 134 125 108 49 -7 15 55 125 330 514 776 862 884 806 696 648 758 836 942 918 901 590
21 12 6 -7 -31 -32 -23 18 41 32 31 47 46 -13 7 34 46 72 82 105 92 84 43 28 -24 -81 -7 66 111 159 394 522 752 884 873 845 728 689 820 909 995 997 677 486
-7 2 3 -19 -4 35 20 -2 12 53 71 101 97 119 101 81 97 79 81 84 66 74 24 -12 -27 -11 41 78 131 222 492 639 756 902 934 857 819 749 862 909 1045 872 519 487
9 14 20 -20 7 30 57 61 57 48 52 84 87 95 55 16 12 17 -0 10 37 55 35 10 32 59 91 130 219 496 647 752 790 999 1007 891 795 759 957 997 770 573 472 407
23 21 25 -0 -17 24 43 54 61 89 101 83 76 73 49 41 44 37 72 87 88 107 129 143 179 183 283 352 526 726 786 851 1020 1052 983 921 815 865 917 703 543 480 369 188
16 12 7 -12 -25 -36 -27 -2 49 85 113 159 163 109 78 84 113 111 90 168 166 164 218 268 249 340 448 639 772 803 841 986 1045 1046 971 854 833 764 582 510 380 431 201 136
-1 -2 -0 -9 6 -14 -36 -26 -15 -7 30 88 145 178 191 175 195 197 165 165 196 251 368 364 493 626 684 785 807 848 892 962 1004 954 841 813 648 567 527 380 312 157 140 151
-12 -7 3 4 -7 -17 -20 -20 -28 -19 -18 -11 37 83 136 170 182 186 207 212 258 349 437 515 583 644 750 806 845 849 887 844 790 764 559 411 388 412 284 160 145 130 144 159
-13 -13 -16 -11 -24 -22 -28 6 31 4 16 32 42 47 60 107 131 188 270 333 396 421 448 502 592 642 671 666 647 638 575 439 331 324 323 289 228 165 127 130 144 168 177 190
-5 -8 -13 -17 -18 -17 -25 -2 9 44 52 53 73 83 44 34 39 62 70 123 198 285 339 357 376 365 295 255 281 312 315 277 213 174 109 88 101 138 158 162 178 192 190 171

GFSNGP_con_3kmhel_246.txt.gz
Helicity
-58 -39 -69 -0 148 263 294 283 138 39 168 93 181 233 302 335 524 625 631 849 575 208 277 301 379 443 491 457 395 416 482 544 510 443 452 526 596 556 503 524 506 524 590 570
-26 -98 -98 -17 132 143 246 248 189 268 89 173 229 199 205 285 379 785 1025 1227 1142 953 386 352 388 427 442 453 439 423 484 489 466 404 438 509 512 494 478 507 555 633 618 562
-18 -36 -38 -8 -45 -46 63 115 71 115 98 120 307 237 351 254 263 478 662 1017 1207 1109 762 454 236 253 304 335 366 387 408 431 470 439 404 407 378 417 504 539 609 557 543 519
-20 -30 -60 -17 9 25 70 154 106 104 42 59 129 259 99 95 184 168 23 573 778 865 787 489 257 167 182 229 270 258 235 226 254 312 349 384 358 391 449 513 507 564 543 503
24 -7 63 80 87 83 -15 66 80 108 8 -105 46 110 210 -16 14 98 294 302 478 664 623 581 241 118 119 159 181 195 173 182 224 252 268 265 282 349 417 446 447 427 500 554
67 12 15 37 10 1 77 98 184 31 -18 -41 -92 1 68 -6 87 -16 -114 -60 353 471 471 592 388 167 141 93 141 179 162 137 120 170 272 315 355 405 416 423 450 503 559 517
70 56 37 16 90 47 32 16 25 85 71 -1 7 -5 -34 -33 -12 -54 -113 -227 -212 97 205 390 341 283 164 192 160 171 158 150 143 134 173 251 346 452 530 587 613 556 568 527
44 39 69 25 121 131 120 56 15 8 56 63 64 21 4 -32 -42 -3 -9 -94 -238 -178 -244 -62 79 110 199 190 137 160 169 168 164 142 169 213 306 361 446 492 570 532 532 612
43 39 43 17 38 110 11 -12 27 33 46 60 80 64 65 32 28 -8 -6 24 30 -184 -246 -39 -31 -32 69 160 99 125 138 148 136 156 185 207 270 335 410 413 441 569 551 541
74 6 -76 -35 -35 -28 25 51 23 29 30 13 27 66 63 63 64 53 42 39 33 61 79 30 23 16 47 56 -20 109 125 168 202 198 208 227 258 328 407 439 478 482 594 577
11 -16 -46 -46 -21 29 26 52 41 43 31 67 45 52 43 50 58 57 75 62 66 65 70 36 77 -11 8 42 30 70 166 191 213 240 236 277 291 332 366 379 483 528 527 649
-25 -14 15 34 70 49 39 61 71 66 66 73 58 54 45 52 48 39 44 46 41 56 55 78 50 40 44 -16 -10 90 160 206 220 245 272 291 332 392 404 348 406 475 537 660
6 -16 39 11 17 82 66 54 49 40 30 20 25 33 37 22 29 49 23 11 13 25 37 59 9 28 33 58 50 -13 30 123 212 286 309 361 374 379 395 421 356 390 497 598
47 12 104 90 45 23 2 11 22 8 9 15 9 7 8 20 20 26 43 47 42 38 48 38 56 63 10 22 41 37 3 45 131 187 248 385 393 390 416 479 466 437 367 433
117 138 93 51 36 25 30 20 11 8 18 21 36 45 47 35 36 39 46 44 40 42 54 99 74 54 73 92 100 80 93 91 109 147 206 271 445 419 453 452 471 495 460 379
63 45 61 31 13 -2 -7 -0 -0 10 24 19 10 3 1 12 48 79 92 92 110 85 67 87 126 123 71 129 84 61 55 72 130 166 194 215 303 419 473 446 479 498 469 460
-1 19 12 16 7 -1 -5 -5 2 -5 -20 -31 -22 3 18 36 55 80 101 142 162 139 115 107 101 106 117 122 183 162 116 111 118 200 201 225 260 307 430 447 481 497 481 503
-7 -19 2 11 14 11 10 19 2 -11 -19 -18 -5 7 22 45 56 58 74 92 108 115 119 118 80 72 114 134 173 206 226 247 303 298 258 237 260 290 373 380 371 441 473 497
25 18 2 -0 3 -2 -13 -14 -10 -12 -8 -8 4 24 40 55 67 72 91 117 107 102 72 87 103 139 160 146 169 217 227 240 251 289 274 255 290 228 190 309 388 321 457 536
20 15 -4 -16 -2 -12 -3 -6 -15 -11 15 10 5 9 34 46 45 58 74 81 98 105 60 61 67 116 167 181 227 259 292 307 298 295 324 311 286 269 203 251 344 423 481 487
25 19 6 1 7 10 4 -3 -6 7 31 29 20 21 7 -18 8 55 60 29 14 47 68 76 108 116 159 212 237 259 261 262 271 271 275 273 267 233 264 327 361 419 524 529
30 27 15 11 22 22 10 2 11 16 32 36 39 59 51 34 33 26 74 65 18 24 33 44 49 72 112 144 195 223 240 235 250 292 275 263 274 254 262 293 399 475 530 533
22 17 13 7 13 22 29 15 12 18 18 29 34 43 75 94 109 16 55 123 79 68 34 36 45 48 50 85 121 169 197 212 227 251 268 298 286 274 317 332 441 502 568 567
11 8 11 16 12 14 15 19 1 3 19 28 23 31 59 46 40 124 54 47 76 98 85 63 56 54 62 104 129 158 166 183 202 219 251 301 335 366 355 384 477 518 564 627
23 11 1 -8 3 3 11 10 3 -1 -9 10 4 12 -31 13 -22 40 85 84 98 94 84 84 83 87 107 123 134 152 172 177 160 178 238 326 357 409 411 461 554 595 675 721
45 22 9 -19 -17 -7 5 6 -11 -14 -8 -8 -13 -15 -30 -30 -37 -8 50 105 129 179 202 216 220 204 181 162 144 133 168 188 171 172 248 331 413 454 532 571 614 687 692 692
64 47 35 20 -0 7 13 7 -12 -20 -18 -33 -34 -31 -17 -4 -17 -11 38 75 105 126 187 254 318 356 378 391 386 380 350 322 341 419 493 537 569 620 678 606 657 641 564 518

GFSNGP_con_3kmhel_252.txt.gz
Helicity
15 46 4 22 75 96 52 33 2 81 14 278 149 153 133 238 270 302 411 495 439 433 392 279 230 126 -2 54 102 162 232 307 321 326 375 414 396 371 414 450 481 475 490 418
13 12 -43 -15 63 34 -42 -105 -115 31 -8 -56 144 171 104 50 229 238 280 395 467 454 461 373 236 119 135 1 104 121 154 207 261 303 357 437 438 402 422 472 489 504 452 420
-3 27 19 -17 -26 -0 22 -49 -79 -22 81 120 93 158 154 104 29 221 234 285 393 435 470 492 442 392 377 183 32 117 140 172 231 311 321 316 376 387 419 428 437 395 354 352
42 39 10 -9 48 -25 57 22 26 54 149 131 79 187 192 182 35 39 21 148 246 342 380 531 639 602 572 296 212 114 127 196 245 325 319 294 322 287 311 373 384 362 322 308
64 47 42 25 32 36 34 55 44 137 198 215 26 68 139 151 137 17 12 -15 21 148 261 378 588 740 737 703 491 346 456 440 429 329 235 298 301 281 280 316 313 326 338 366
74 38 -1 3 5 21 -31 33 52 164 220 206 -13 23 148 243 139 79 6 145 92 -74 57 222 368 612 696 846 819 631 574 404 347 334 358 326 289 263 323 298 321 403 417 354
68 56 15 10 14 50 13 33 150 178 149 128 47 -12 -38 -35 -4 33 -3 25 61 48 -286 -148 -32 359 540 654 821 662 427 483 357 341 320 320 356 372 381 398 403 424 415 405
38 34 -16 -2 -8 -38 -33 -103 -33 149 143 111 83 27 38 8 -1 -48 -36 -55 -58 -16 -94 -169 -188 90 365 453 446 572 480 384 392 345 261 268 290 362 378 355 366 378 405 431
33 28 1 28 -5 4 -52 -81 -25 99 142 50 36 62 49 45 50 33 16 24 -89 -55 -46 -74 -127 -280 154 257 239 310 377 490 382 333 344 296 243 252 331 352 356 369 383 364
-5 39 24 49 48 -29 -4 -26 14 47 57 48 29 15 27 28 39 24 -4 2 18 -4 -107 -82 -67 -76 -97 83 103 118 188 291 374 395 252 290 324 300 273 252 236 266 297 277
54 62 27 -10 -8 -39 21 4 16 40 23 37 10 21 14 19 22 12 4 2 -17 -18 -9 -14 -24 -82 -73 30 125 79 96 88 151 273 328 249 189 214 238 251 238 233 219 248
59 43 9 -16 -20 -2 -0 44 27 17 17 8 -8 -6 -3 -5 -4 -8 -9 -24 -32 -32 -36 -28 -7 3 -0 -27 4 52 68 -12 -79 33 164 239 280 195 221 142 178 202 192 251
79 62 40 20 2 15 46 46 25 8 -5 -13 -16 -16 -11 -13 -14 -16 -21 -27 -44 -36 -38 -41 -40 -9 2 25 17 4 23 24 32 -95 -4 28 149 232 238 164 105 99 129 159
12 24 35 51 46 64 54 15 -15 -21 -19 -17 -15 -8 -19 -31 -24 -15 -14 -14 -6 -8 -16 -15 -36 -33 -9 1 21 20 1 25 8 13 -4 40 34 55 92 136 156 111 78 140
58 56 52 44 40 32 17 -15 -18 -21 -18 -8 7 -4 -0 6 1 -1 7 10 -10 -15 -16 -10 -1 -15 -9 21 42 49 61 47 22 48 64 82 88 91 82 34 56 96 140 159
58 47 46 21 -3 18 12 14 -5 2 11 9 17 27 34 28 21 19 18 13 16 30 34 19 4 19 29 28 54 43 54 74 100 67 74 100 155 155 156 135 103 101 98 125
26 12 5 5 -7 -4 -1 8 14 9 27 35 47 41 27 17 17 27 41 21 10 32 54 67 60 34 35 77 80 102 82 62 86 123 125 132 145 166 163 174 164 154 150 190
9 2 12 13 6 4 4 14 16 18 13 18 17 13 14 11 -0 6 20 33 34 41 38 27 -1 9 46 57 71 108 138 118 105 114 142 153 143 183 220 182 182 176 203 212
17 25 26 24 20 17 16 16 20 22 23 12 5 10 8 -5 -11 -4 10 15 32 19 51 45 26 3 20 40 83 121 129 160 194 161 151 164 170 148 174 235 250 225 255 267
39 34 28 25 28 20 15 21 19 25 29 15 3 -8 -10 -6 -15 -8 -3 9 39 27 20 32 24 1 28 50 61 109 136 150 167 216 226 215 210 189 195 227 270 292 309 284
24 30 31 31 28 29 34 33 33 21 21 8 -4 -3 -6 -6 -11 -6 4 14 89 53 43 33 26 32 63 56 62 100 117 138 150 143 180 209 244 239 237 263 305 316 330 301
35 26 20 24 20 18 30 35 32 34 38 34 29 13 -0 2 2 28 42 45 85 51 44 54 60 30 80 64 75 74 107 89 107 137 135 153 202 242 252 255 258 292 310 308
35 45 48 37 37 48 44 34 26 21 21 26 25 21 20 41 56 26 60 74 60 63 65 50 -3 -7 32 85 87 82 76 82 78 60 96 136 158 191 225 276 271 281 310 302
58 59 63 41 71 99 69 54 43 29 22 22 15 23 23 50 53 79 80 45 37 37 67 51 46 13 35 100 110 87 66 44 49 64 76 110 162 201 221 257 299 306 293 281
80 98 83 85 105 94 66 35 31 37 22 15 23 20 31 80 69 37 56 71 44 62 108 95 128 90 92 118 105 80 74 62 51 56 78 107 159 214 231 254 273 289 289 293
112 127 108 93 84 82 51 26 25 44 23 1 9 9 17 27 15 31 30 34 32 66 106 124 144 119 60 52 89 36 74 91 89 83 55 58 92 137 186 219 239 273 285 274
105 112 90 80 83 67 53 39 32 38 34 -2 -10 5 5 -4 -12 -0 6 7 11 63 86 92 39 77 60 37 20 22 15 51 69 74 80 70 45 57 106 148 199 235 255 242